Location: Menands
(42.6920°N, 73.7246°W)
Time: 08:21:37
(UTC+00:00)

USA 267 - Pass Details

Date: 18 February 2026
Orbit: 1101 x 1107 km, 123.0° (Epoch: 10 January)

Event Time Altitude Azimuth Distance (km) Brightness Sun altitude
Exits shadow 23:28:30 - 45° (NE) 3,441 5.4 -11.3°
Reaches altitude 10° 23:29:46 10° 43° (NE) 2,967 5.1 -11.5°
Maximum altitude 23:36:06 54° 329° (NNW) 1,321 3.9 -12.7°
Drops below altitude 10° 23:42:24 10° 254° (WSW) 2,955 6.9 -13.8°
Sets 23:44:55 0° 250° (WSW) 3,910 7.7 -14.3°
